Location: Possagno
(45.8500°N, 11.8667°E)
Time: 02:33:26
(UTC+00:00)

STARLINK-57 - Pass Details

Date: 07 June 2020
Orbit: 434 x 435 km, 53.0° (Epoch: 05 July)

Event Time Altitude Azimuth Distance (km) Brightness Sun altitude
Exits shadow 00:26:48 - 115° (ESE) 1,822 6.2 -19.3°
Enters shadow 01:24:27 -70° 237° (WSW) 12,414 10.4 -15.0°
Maximum altitude 02:02:23 48° 142° (SE) 575 3.6 -11.2°
